Weather History for Kansas City, MO

Change the Weather History Date:

Wednesday, March 13, 2013

  Actual Average Record
Temperature  
Mean Temperature 36 °F -  
Max Temperature 46 °F 50 °F 82 °F (2012)
Min Temperature 26 °F 31 °F 26 °F (2013)
Degree Days  
Heating Degree Days 29    
Moisture  
Dew Point 19 °F    
Average Humidity 53    
Maximum Humidity 72    
Minimum Humidity 31    
Precipitation  
Precipitation 0.00 in - - ()
Sea Level Pressure  
Sea Level Pressure 30.41 in    
Wind  
Wind Speed 5 mph (WNW)    
Max Wind Speed 9 mph    
Max Gust Speed -    
Visibility 10 miles    
Events      
Averages and records for this station are not official NWS values.
T = Trace of Precipitation, MM = Missing Value Source: NWS Daily Summary

Daily Weather History Graph

Daily Weather History Graph

Search for Another Location

Airport:

Trip Planner

Search our weather history database for the weather conditions in past years. The results will help you decide how hot, cold, wet, or windy it might be!

Date:

Astronomy

Mar. 13, 2013 Rise Set
Actual Time 7:32 AM CDT 7:23 PM CDT
Civil Twilight 7:05 AM CDT 7:50 PM CDT
Nautical Twilight 6:34 AM CDT 8:21 PM CDT
Astronomical Twilight 6:03 AM CDT 8:52 PM CDT
Moon 8:13 AM CDT (3/13) 9:39 PM CDT (3/13)
Length of Visible Light 12h 44m
Length of Day
11h 51m
Waxing Crescent, 4% of the Moon is Illuminated
Mar 13
Waxing Crescent
Mar 19
First Quarter
Mar 27
Full
Apr 2
Last Quarter
Apr 10
New

Hourly Weather History & Observations

Time (CDT) Temp. Windchill Dew Point Humidity Pressure Visibility Wind Dir Wind Speed Gust Speed Precip Events Conditions
12:54 AM 30.9 °F 25.2 °F 19.0 °F 61% 30.37 in 10.0 mi WNW 5.8 mph - N/A   Clear
1:54 AM 30.0 °F 22.4 °F 19.0 °F 64% 30.37 in 10.0 mi WNW 8.1 mph - N/A   Clear
2:54 AM 28.9 °F 21.9 °F 19.0 °F 67% 30.38 in 10.0 mi NW 6.9 mph - N/A   Clear
3:54 AM 28.0 °F 21.7 °F 19.0 °F 69% 30.39 in 10.0 mi NW 5.8 mph - N/A   Clear
4:54 AM 28.0 °F 24.2 °F 19.0 °F 69% 30.40 in 10.0 mi NW 3.5 mph - N/A   Clear
5:54 AM 27.0 °F 21.6 °F 19.0 °F 72% 30.41 in 10.0 mi NW 4.6 mph - N/A   Clear
6:54 AM 26.1 °F - 18.0 °F 71% 30.43 in 10.0 mi Calm Calm - N/A   Clear
7:54 AM 26.1 °F 19.4 °F 18.0 °F 71% 30.44 in 10.0 mi NW 5.8 mph - N/A   Clear
8:54 AM 28.0 °F 21.7 °F 18.0 °F 66% 30.46 in 10.0 mi Variable 5.8 mph - N/A   Clear
9:54 AM 30.0 °F 25.2 °F 18.0 °F 61% 30.48 in 10.0 mi NW 4.6 mph - N/A   Clear
10:54 AM 33.1 °F - 18.0 °F 54% 30.50 in 10.0 mi Calm Calm - N/A   Clear
11:54 AM 36.0 °F 31.1 °F 19.0 °F 50% 30.50 in 10.0 mi WNW 5.8 mph - N/A   Clear
12:54 PM 39.0 °F 36.8 °F 19.0 °F 45% 30.50 in 10.0 mi Variable 3.5 mph - N/A   Partly Cloudy
1:54 PM 39.9 °F 37.8 °F 18.0 °F 41% 30.48 in 10.0 mi NW 3.5 mph - N/A   Clear
2:54 PM 41.0 °F - 18.0 °F 40% 30.44 in 10.0 mi Calm Calm - N/A   Overcast
3:54 PM 43.0 °F - 18.0 °F 37% 30.42 in 10.0 mi Calm Calm - N/A   Overcast
4:54 PM 44.1 °F - 16.0 °F 32% 30.40 in 10.0 mi Calm Calm - N/A   Scattered Clouds
5:54 PM 46.0 °F 44.8 °F 17.1 °F 31% 30.38 in 10.0 mi Variable 3.5 mph - N/A   Mostly Cloudy
6:54 PM 46.0 °F - 17.1 °F 31% 30.38 in 10.0 mi Calm Calm - N/A   Overcast
7:54 PM 41.0 °F 35.2 °F 17.1 °F 38% 30.37 in 10.0 mi SSW 9.2 mph - N/A   Clear
8:54 PM 39.0 °F 35.7 °F 19.9 °F 46% 30.37 in 10.0 mi South 4.6 mph - N/A   Clear
9:54 PM 39.0 °F - 19.9 °F 46% 30.36 in 10.0 mi Calm Calm - N/A   Clear
10:54 PM 39.0 °F 36.8 °F 21.9 °F 50% 30.35 in 10.0 mi South 3.5 mph - N/A   Clear
11:54 PM 37.9 °F 33.5 °F 21.9 °F 53% 30.33 in 10.0 mi SSE 5.8 mph - N/A   Clear